This demonstration page uses our WeatherBlox Daily Observations layout. Learn more.

Left ArrowRight Arrow

40.92945, -100.16068

Hourly Observations for October 3, 2020

Temp ( °F °C ) Dew Point ( °F °C ) Humidity (%) Winds ( mph kmh ) Pressure ( in mb ) Visibility ( mi km ) Precip ( " mm )
12:15 am 00:15 Clear 47 8.5 43 6.2 86 86 NW 5 7 30.10 1019 10 16 N/A
12:35 am 00:35 Partly Cloudy 47 8.2 44 6.5 89 89 NNW 7 11 30.10 1019 10 16 N/A
12:55 am 00:55 Partly Cloudy 47 8.5 44 6.5 87 87 NNW 6 9 30.10 1019 10 16 N/A
1:15 am 01:15 Clear 46 7.9 43 6 88 88 W 5 7 30.11 1020 10 16 N/A
1:35 am 01:35 Clear 45 7.4 42 5.5 88 88 NW 7 11 30.11 1019 10 16 N/A
1:55 am 01:55 Clear 44 6.8 41 5 88 88 WNW 7 11 30.11 1020 10 16 N/A
2:15 am 02:15 Clear 45 7.2 42 5.4 88 88 WNW 8 13 30.10 1019 10 16 N/A
2:35 am 02:35 Clear 45 7.1 41 5.2 88 88 NW 7 11 30.11 1020 10 16 N/A
2:55 am 02:55 Clear 44 6.5 41 4.8 89 89 NW 7 11 30.11 1020 10 16 N/A
3:15 am 03:15 Clear 44 6.5 41 5 90 90 WNW 7 11 30.11 1020 10 16 N/A
3:35 am 03:35 Clear 45 7 41 5.1 88 88 WNW 7 11 30.11 1020 10 16 N/A
3:55 am 03:55 Clear 44 6.9 41 5.2 89 89 NW 7 11 30.11 1020 10 16 N/A
4:15 am 04:15 Clear 44 6.7 41 5.1 90 90 NW 6 9 30.11 1020 10 16 N/A
4:35 am 04:35 Clear 45 7.2 42 5.5 89 89 NW 7 11 30.11 1020 10 16 N/A
4:55 am 04:55 Clear 45 7 42 5.3 89 89 NW 8 13 30.12 1020 10 16 N/A
5:15 am 05:15 Clear 44 6.6 41 5.1 90 90 NNW 9 15 30.13 1020 10 16 N/A
5:35 am 05:35 Clear 43 6.3 41 4.9 91 91 NW 8 13 30.14 1021 10 16 N/A
5:55 am 05:55 Clear 43 6 40 4.6 91 91 NNW 8 13 30.15 1021 10 16 N/A
6:15 am 06:15 Clear 41 4.8 39 3.8 93 93 NW 5 7 30.16 1021 10 16 N/A
6:35 am 06:35 Clear 40 4.4 38 3.5 94 94 NNW 5 7 30.15 1021 10 16 N/A
6:55 am 06:55 Clear 38 3.5 37 2.6 94 94 WNW 6 9 30.17 1022 10 16 N/A
7:15 am 07:15 Clear 38 3.3 37 2.6 95 95 WNW 6 9 30.17 1022 10 16 N/A
7:35 am 07:35 Clear 38 3.4 37 2.6 95 95 NW 5 7 30.17 1022 10 16 N/A
7:55 am 07:55 Sunny 38 3.3 37 2.7 96 96 W 9 15 30.18 1022 10 16 N/A
8:15 am 08:15 Sunny 41 4.9 38 3.6 91 91 WNW 6 9 30.18 1022 10 16 N/A
8:35 am 08:35 Sunny 42 5.5 39 4 90 90 W 6 9 30.17 1022 10 16 N/A
8:55 am 08:55 Sunny 44 6.6 40 4.5 87 87 WNW 7 11 30.16 1021 10 16 N/A
9:15 am 09:15 Sunny 46 7.5 40 4.5 81 81 WNW 8 13 30.15 1021 10 16 N/A
9:35 am 09:35 Sunny 47 8.6 42 5.3 80 80 NW 7 11 30.15 1021 10 16 N/A
9:55 am 09:55 Sunny 49 9.2 42 5.7 79 79 NNW 6 9 30.16 1021 10 16 N/A
10:15 am 10:15 Sunny 50 9.8 43 6.1 78 78 NE 3 6 30.15 1021 10 16 N/A
10:35 am 10:35 Partly Cloudy 51 10.6 43 6.3 75 75 ENE 3 6 30.15 1021 10 16 N/A
10:55 am 10:55 Partly Cloudy 52 11 44 6.5 74 74 E 6 9 30.15 1021 10 16 N/A
11:15 am 11:15 Mostly Cloudy 54 12.4 44 6.8 69 69 ESE 8 13 30.14 1021 10 16 N/A
11:35 am 11:35 Mostly Cloudy 54 12.1 44 6.5 69 69 ENE 5 7 30.15 1021 10 16 N/A
11:55 am 11:55 Partly Cloudy 55 12.6 44 6.5 67 67 NNW 3 6 30.15 1021 10 16 N/A
12:15 pm 12:15 Partly Cloudy 56 13.4 44 6.5 63 63 N N/A 30.14 1021 10 16 N/A
12:35 pm 12:35 Partly Cloudy 58 14.2 44 6.5 60 60 NE 7 11 30.13 1020 10 16 N/A
12:55 pm 12:55 Mostly Cloudy 58 14.5 44 6.5 59 59 ESE 3 6 30.13 1020 10 16 N/A
1:15 pm 13:15 Mostly Cloudy 59 15.1 42 5.3 52 52 NW 6 9 30.11 1020 10 16 N/A
1:35 pm 13:35 Mostly Cloudy 60 15.7 43 6.2 53 53 ENE 7 11 30.11 1020 10 16 N/A
1:55 pm 13:55 Mostly Cloudy 60 15.8 43 6.1 53 53 NE 5 7 30.11 1020 10 16 N/A
2:15 pm 14:15 Mostly Cloudy 63 17.1 39 4 42 42 N 12 19 30.10 1019 10 16 N/A
2:35 pm 14:35 Cloudy 63 17.3 40 4.4 43 43 NNE 9 15 30.09 1019 10 16 N/A
2:55 pm 14:55 Mostly Cloudy 65 18.4 40 4.3 39 39 NNE 10 17 30.07 1018 10 16 N/A
3:15 pm 15:15 Mostly Cloudy 64 17.6 39 4.1 41 41 NW 7 11 30.07 1018 10 16 N/A
3:35 pm 15:35 Mostly Cloudy 65 18.3 40 4.3 40 40 NE 10 17 30.06 1018 10 16 N/A
3:55 pm 15:55 Partly Cloudy 64 17.8 38 3.3 38 38 NNW 10 17 30.07 1018 10 16 N/A
4:15 pm 16:15 Partly Cloudy 64 18 38 3.3 38 38 N 12 19 30.07 1018 10 16 N/A
4:35 pm 16:35 Mostly Cloudy 66 18.7 39 3.7 37 37 NNW 9 15 30.06 1018 10 16 N/A
4:55 pm 16:55 Mostly Cloudy 64 17.8 38 3.3 38 38 NNW 8 13 30.06 1018 10 16 N/A
5:15 pm 17:15 Mostly Cloudy 66 18.8 37 3 35 35 N 10 17 30.05 1018 10 16 N/A
5:35 pm 17:35 Partly Cloudy 65 18.4 37 3 36 36 N 12 19 30.07 1018 10 16 N/A
5:55 pm 17:55 Sunny 65 18.1 37 2.9 36 36 NNW 8 13 30.07 1018 10 16 N/A
6:15 pm 18:15 Sunny 64 17.9 37 2.7 36 36 N 9 15 30.07 1018 10 16 N/A
6:35 pm 18:35 Sunny 63 17.4 37 2.8 38 38 N 9 15 30.08 1019 10 16 N/A
6:55 pm 18:55 Sunny 62 16.5 37 2.8 40 40 NNE 6 9 30.10 1019 10 16 N/A
7:15 pm 19:15 Sunny 59 15 37 3 45 45 NNE 6 9 30.13 1020 10 16 N/A
7:35 pm 19:35 Clear 57 13.8 37 2.9 48 48 NE 7 11 30.15 1021 10 16 N/A
7:55 pm 19:55 Hazy 55 12.5 38 3.1 53 53 NE 7 11 30.16 1021 2 3 N/A
8:15 pm 20:15 Clear 52 11 38 3.2 59 59 E 6 9 30.17 1022 10 16 N/A
8:35 pm 20:35 Clear 51 10.3 38 3.1 61 61 E 3 6 30.19 1022 10 16 N/A
8:55 pm 20:55 Clear 52 11.2 40 4.3 63 63 ESE 3 6 30.18 1022 10 16 N/A
9:15 pm 21:15 Clear 51 10.4 39 4 65 65 N N/A 30.20 1023 10 16 N/A
9:35 pm 21:35 Clear 50 9.8 39 4.1 68 68 N N/A 30.20 1023 10 16 N/A
9:55 pm 21:55 Clear 50 10 39 3.9 66 66 N N/A 30.20 1023 10 16 N/A
10:15 pm 22:15 Clear 46 7.8 37 2.8 71 71 N N/A 30.23 1024 10 16 N/A
10:35 pm 22:35 Clear 46 7.8 37 2.9 71 71 N N/A 30.23 1024 10 16 N/A
10:55 pm 22:55 Clear 45 7.1 37 2.8 74 74 SE 7 11 30.23 1024 10 16 N/A
11:15 pm 23:15 Clear 45 7 37 2.7 74 74 SSE 5 7 30.24 1024 10 16 N/A
11:35 pm 23:35 Clear 43 6.1 37 2.5 78 78 S 5 7 30.25 1024 10 16 N/A
11:55 pm 23:55 Clear 45 7.2 37 2.9 74 74 SSE 3 6 30.25 1024 10 16 N/A

Powered by AerisWeather